Sevilla, Spain

9:42 AM CET on December 13, 2017 (GMT +0100)
San Pablo

Weather History for LEZL - November, 2011

Change the Weather History Date:

Sunday, November 27, 2011

  Actual Average Record
Temperature  
Mean Temperature 53 °F -  
Max Temperature 64 °F 61 °F 71 °F (2000)
Min Temperature 42 °F 44 °F 35 °F (2005)
Degree Days  
Heating Degree Days 12    
Growing Degree Days 3 (Base 50)    
Moisture  
Dew Point 43 °F    
Average Humidity 73    
Maximum Humidity 93    
Minimum Humidity 42    
Precipitation  
Precipitation 0.00 in - - ()
Sea Level Pressure  
Sea Level Pressure 30.25 in    
Wind  
Wind Speed 1 mph ()    
Max Wind Speed 6 mph    
Max Gust Speed -    
Averages and records for this station are not official NWS values.
T = Trace of Precipitation, MM = Missing Value Source: Averaged Metar Reports

Daily Weather History Graph

Daily Weather History Graph

Search for Another Location

Airport or City:

Trip Planner

Search our weather history database for the weather conditions in past years. The results will help you decide how hot, cold, wet, or windy it might be!

Date:

Astronomy

Nov. 27, 2011 Rise Set
Actual Time 8:14 AM CET 6:07 PM CET
Civil Twilight 7:46 AM CET 6:35 PM CET
Nautical Twilight 7:14 AM CET 7:07 PM CET
Astronomical Twilight 6:42 AM CET 7:39 PM CET
Moon 10:27 AM CET (11/27) 8:30 PM CET (11/27)
Length of Visible Light 10h 49m
Length of Day
9h 52m
Waxing Crescent, 7% of the Moon is Illuminated
Nov 27
Waxing Crescent
Dec 2
First Quarter
Dec 10
Full
Dec 18
Last Quarter
Dec 24
New

Hourly Weather History & Observations

Time (CET) Temp. Dew Point Humidity Pressure Visibility Wind Dir Wind Speed Gust Speed Precip Events Conditions
12:00 AM 48.2 °F 42.8 °F 82% 30.30 in - Calm Calm - N/A   Clear
12:30 AM 48.2 °F 44.6 °F 87% 30.30 in - Calm Calm - N/A   Clear
1:00 AM 46.4 °F 42.8 °F 87% 30.30 in - Calm Calm - N/A   Clear
4:30 AM 44.6 °F 42.8 °F 93% 30.27 in - Calm Calm - N/A   Clear
5:00 AM 44.6 °F 42.8 °F 93% 30.27 in - Calm Calm - N/A   Clear
5:30 AM 42.8 °F 41.0 °F 93% 30.27 in - Calm Calm - N/A   Clear
6:00 AM 44.6 °F 42.8 °F 93% 30.27 in - Calm Calm - N/A   Clear
6:30 AM 44.6 °F 42.8 °F 93% 30.27 in - Calm Calm - N/A   Clear
7:00 AM 42.8 °F 41.0 °F 93% 30.27 in - NNE 2.3 mph - N/A   Clear
7:30 AM 44.6 °F 41.0 °F 87% 30.27 in - NE 2.3 mph - N/A   Clear
8:00 AM 42.8 °F 41.0 °F 93% 30.27 in - North 2.3 mph - N/A   Clear
8:30 AM 42.8 °F 41.0 °F 93% 30.27 in - North 2.3 mph - N/A   Clear
9:00 AM 44.6 °F 41.0 °F 87% 30.27 in - NNE 2.3 mph - N/A   Clear
9:30 AM 46.4 °F 44.6 °F 93% 30.30 in - Variable 2.3 mph - N/A   Clear
10:00 AM 50.0 °F 44.6 °F 82% 30.30 in - NE 2.3 mph - N/A   Clear
10:30 AM 51.8 °F 46.4 °F 82% 30.30 in - Variable 1.2 mph - N/A   Clear
11:00 AM 55.4 °F 46.4 °F 72% 30.30 in - Variable 2.3 mph - N/A   Clear
11:30 AM 55.4 °F 44.6 °F 67% 30.30 in - NE 4.6 mph - N/A   Clear
12:00 PM 57.2 °F 42.8 °F 59% 30.30 in - NE 3.5 mph - N/A   Clear
12:30 PM 59.0 °F 44.6 °F 59% 30.27 in - NE 3.5 mph - N/A   Clear
1:00 PM 59.0 °F 42.8 °F 55% 30.27 in - NE 5.8 mph - N/A   Clear
1:30 PM 60.8 °F 42.8 °F 52% 30.24 in - NNE 3.5 mph - N/A   Clear
2:00 PM 60.8 °F 42.8 °F 52% 30.24 in - NNE 5.8 mph - N/A   Clear
2:30 PM 62.6 °F 41.0 °F 45% 30.24 in - NE 3.5 mph - N/A   Clear
3:00 PM 62.6 °F 41.0 °F 45% 30.21 in - Variable 2.3 mph - N/A   Clear
3:30 PM 62.6 °F 41.0 °F 45% 30.21 in - Variable 2.3 mph - N/A   Clear
4:00 PM 64.4 °F 41.0 °F 42% 30.18 in - Calm Calm - N/A   Clear
4:30 PM 62.6 °F 39.2 °F 42% 30.18 in - Variable 1.2 mph - N/A   Clear
5:00 PM 62.6 °F 41.0 °F 45% 30.18 in - Calm Calm - N/A   Clear
5:30 PM 62.6 °F 39.2 °F 42% 30.21 in - Calm Calm - N/A   Clear
6:00 PM 60.8 °F 41.0 °F 48% 30.21 in - Calm Calm - N/A   Clear
6:30 PM 57.2 °F 46.4 °F 67% 30.21 in - Calm Calm - N/A   Clear
7:00 PM 55.4 °F 46.4 °F 72% 30.21 in - Calm Calm - N/A   Clear
7:30 PM 53.6 °F 46.4 °F 77% 30.21 in - Calm Calm - N/A   Clear
8:00 PM 53.6 °F 44.6 °F 72% 30.21 in - Calm Calm - N/A   Clear
8:30 PM 51.8 °F 44.6 °F 76% 30.21 in - Calm Calm - N/A   Clear
9:00 PM 50.0 °F 44.6 °F 82% 30.21 in - Calm Calm - N/A   Clear
9:30 PM 50.0 °F 44.6 °F 82% 30.21 in - Calm Calm - N/A   Clear
10:00 PM 48.2 °F 44.6 °F 87% 30.21 in - Calm Calm - N/A   Clear
10:30 PM 48.2 °F 44.6 °F 87% 30.21 in - Calm Calm - N/A   Clear
11:00 PM 46.4 °F 42.8 °F 87% 30.21 in - ESE 2.3 mph - N/A   Clear
11:30 PM 46.4 °F 42.8 °F 87% 30.21 in - ESE 2.3 mph - N/A   Clear